TimeMST,TemperatureF,Dew PointF,Humidity,Sea Level PressureIn,VisibilityMPH,Wind Direction,Wind SpeedMPH,Gust SpeedMPH,PrecipitationIn,Events,Conditions,WindDirDegrees,DateUTC
12:52 AM,26.1,21.9,84,30.66,-9999.0,Calm,Calm,-,N/A,,Unknown,0,2013-01-02 07:52:00
1:52 AM,26.1,21.9,84,30.67,-9999.0,Calm,Calm,-,N/A,,Unknown,0,2013-01-02 08:52:00
2:52 AM,25.0,21.0,85,30.67,-9999.0,Calm,Calm,-,N/A,,Unknown,0,2013-01-02 09:52:00
3:52 AM,24.1,19.0,81,30.69,-9999.0,Calm,Calm,-,N/A,,Unknown,0,2013-01-02 10:52:00
4:52 AM,23.0,19.0,85,30.69,-9999.0,Calm,Calm,-,N/A,,Unknown,0,2013-01-02 11:52:00
5:52 AM,23.0,18.0,81,30.70,-9999.0,Calm,Calm,-,N/A,,Unknown,0,2013-01-02 12:52:00
6:52 AM,21.9,17.1,82,30.71,-9999.0,Calm,Calm,-,N/A,,Unknown,0,2013-01-02 13:52:00
7:52 AM,21.9,16.0,78,30.71,-9999.0,Variable,3.5,-,N/A,,Unknown,0,2013-01-02 14:52:00
8:52 AM,21.0,15.1,78,30.71,-9999.0,Variable,3.5,-,N/A,,Unknown,0,2013-01-02 15:52:00
9:52 AM,21.9,14.0,72,30.71,-9999.0,North,4.6,-,N/A,,Unknown,360,2013-01-02 16:52:00
10:52 AM,26.1,14.0,60,30.70,-9999.0,Variable,3.5,-,N/A,,Unknown,0,2013-01-02 17:52:00
11:52 AM,27.0,14.0,58,30.69,-9999.0,North,5.8,-,N/A,,Unknown,10,2013-01-02 18:52:00
12:52 PM,32.0,14.0,48,30.64,-9999.0,Variable,3.5,-,N/A,,Unknown,0,2013-01-02 19:52:00
1:52 PM,34.0,16.0,48,30.62,-9999.0,Calm,Calm,-,N/A,,Unknown,0,2013-01-02 20:52:00
2:52 PM,35.1,17.1,48,30.62,-9999.0,Calm,Calm,-,N/A,,Unknown,0,2013-01-02 21:52:00
3:52 PM,30.0,19.9,66,30.62,-9999.0,North,4.6,-,N/A,,Unknown,350,2013-01-02 22:52:00
4:52 PM,28.9,21.0,72,30.63,-9999.0,Calm,Calm,-,N/A,,Unknown,0,2013-01-02 23:52:00
5:52 PM,27.0,21.0,78,30.65,-9999.0,Calm,Calm,-,N/A,,Unknown,0,2013-01-03 00:52:00
6:52 PM,25.0,19.9,81,30.64,-9999.0,NNW,3.5,-,N/A,,Unknown,340,2013-01-03 01:52:00
7:52 PM,25.0,19.9,81,30.64,-9999.0,NNW,4.6,-,N/A,,Unknown,330,2013-01-03 02:52:00
8:52 PM,24.1,19.9,84,30.64,-9999.0,North,4.6,-,N/A,,Unknown,350,2013-01-03 03:52:00
9:52 PM,23.0,19.0,85,30.64,-9999.0,NNW,5.8,-,N/A,,Unknown,330,2013-01-03 04:52:00
10:52 PM,21.9,18.0,85,30.63,-9999.0,Variable,4.6,-,N/A,,Unknown,0,2013-01-03 05:52:00
11:52 PM,21.9,18.0,85,30.62,-9999.0,North,4.6,-,N/A,,Unknown,350,2013-01-03 06:52:00